FW6122 Weather Reports


Display with metric or nautical units.
time (UTC)temp
F
wind
direction
speed
MPH
gust
MPH
rain 1hr
in
rain 24hr
in
rain mn
in
humidity
%
barometer
mb
20260903104512 56 237 5.0 9.0 0.00 0.00 0.00 22 1011.2
20260903103009 56 238 4.0 9.0 0.00 0.00 0.00 17 1011.3
20260903101504 56 240 5.0 9.0 0.00 0.00 0.00 13 1011.4
20260903100100 56 209 4.0 9.0 0.00 0.00 0.00 10 1011.6
20260903094608 56 145 5.0 9.0 0.00 0.00 0.00 8 1011.7
20260903093100 56 238 6.0 10.0 0.00 0.00 0.00 5 1011.8
20260903091555 56 228 5.0 10.0 0.00 0.00 0.00 4 1011.9
20260903090042 56 222 4.0 9.0 0.00 0.00 0.00 4 1012.0
20260903084537 56 219 3.0 9.0 0.00 0.00 0.00 4 1012.1
20260903083033 57 243 5.0 10.0 0.00 0.00 0.00 3 1012.4
20260903081532 57 214 6.0 12.0 0.00 0.00 0.00 5 1012.5
20260903080024 57 230 5.0 9.0 0.00 0.00 0.00 7 1012.6
20260903074519 57 217 4.0 10.0 0.00 0.00 0.00 7 1012.7
20260903073022 57 227 3.0 7.0 0.00 0.00 0.00 7 1012.9
20260903071511 57 233 3.0 6.0 0.00 0.00 0.00 7 1012.8
20260903070006 58 239 4.0 10.0 0.00 0.00 0.00 6 1012.7
20260903064502 58 232 3.0 8.0 0.00 0.00 0.00 8 1012.8
20260903063057 58 202 2.0 10.0 0.00 0.00 0.00 9 1012.7
20260903061556 58 209 3.0 10.0 0.00 0.00 0.00 8 1012.6
20260903060059 58 228 3.0 7.0 0.00 0.00 0.00 9 1012.5
20260903054544 58 216 3.0 12.0 0.00 0.00 0.00 9 1012.6
20260903053043 58 227 2.0 7.0 0.00 0.00 0.00 8 1012.7
20260903051536 59 239 3.0 8.0 0.00 0.00 0.00 8 1012.8
20260903050037 59 197 3.0 11.0 0.00 0.00 0.00 9 1012.9
20260903044534 59 204 3.0 10.0 0.00 0.00 0.00 9 1013.0
20260903043133 59 234 4.0 9.0 0.00 0.00 0.00 9 1012.9
20260903041535 59 219 3.0 8.0 0.00 0.00 0.00 9 1012.7
20260903040032 60 224 4.0 9.0 0.00 0.00 0.00 10 1012.7
20260903034531 59 237 4.0 8.0 0.00 0.00 0.00 11 1012.6
20260903033030 59 230 3.0 6.0 0.00 0.00 0.00 13 1012.6
20260903031538 59 238 3.0 8.0 0.00 0.00 0.00 15 1012.5
20260903030027 58 216 3.0 5.0 0.00 0.00 0.00 21 1012.5
20260903024526 59 217 3.0 7.0 0.00 0.00 0.00 22 1012.5
20260903023029 60 245 4.0 8.0 0.00 0.00 0.00 22 1012.3
20260903021537 60 231 3.0 6.0 0.00 0.00 0.00 29 1012.0
20260903020028 61 203 3.0 8.0 0.00 0.00 0.00 33 1012.0
20260903014524 62 216 4.0 9.0 0.00 0.00 0.00 32 1012.1
20260903013022 63 225 4.0 8.0 0.00 0.00 0.00 29 1012.1
20260903011530 65 212 4.0 9.0 0.00 0.00 0.00 31 1012.2
20260903010028 66 233 4.0 10.0 0.00 0.00 0.00 30 1012.2
20260903004526 67 194 4.0 8.0 0.00 0.00 0.00 26 1012.3
20260903003020 68 243 4.0 9.0 0.00 0.00 0.00 21 1012.3
20260903001519 70 204 4.0 8.0 0.00 0.00 0.00 20 1012.3
20260903000035 70 159 4.0 9.0 0.00 0.00 0.00 22 1012.5
20260902234517 71 232 4.0 11.0 0.00 0.00 0.00 24 1012.5
20260902233016 71 189 4.0 11.0 0.00 0.00 0.00 24 1012.5
20260902231518 73 242 5.0 9.0 0.00 0.00 0.00 20 1012.7
20260902230013 73 223 3.0 7.0 0.00 0.00 0.00 23 1012.7
20260902224513 73 148 4.0 8.0 0.00 0.00 0.00 21 1012.8
20260902223020 74 233 3.0 8.0 0.00 0.00 0.00 23 1013.1
20260902221516 74 148 4.0 9.0 0.00 0.00 0.00 22 1013.3
20260902220022 74 182 4.0 6.0 0.00 0.00 0.00 21 1013.5
20260902214530 74 247 4.0 8.0 0.00 0.00 0.00 20 1013.4
20260902213007 74 177 4.0 11.0 0.00 0.00 0.00 19 1013.6
20260902211506 74 212 4.0 10.0 0.00 0.00 0.00 20 1013.6
20260902210011 74 232 4.0 10.0 0.00 0.00 0.00 21 1013.5
20260902204505 74 244 4.0 9.0 0.00 0.00 0.00 18 1013.7
20260902203003 74 235 4.0 15.0 0.00 0.00 0.00 19 1013.6
20260902201507 74 271 3.0 7.0 0.00 0.00 0.00 20 1013.9
20260902200004 74 139 3.0 10.0 0.00 0.00 0.00 19 1014.1
20260902194501 74 217 4.0 12.0 0.00 0.00 0.00 16 1014.2
20260902193103 73 172 3.0 7.0 0.00 0.00 0.00 15 1014.3
20260902191559 73 190 4.0 10.0 0.00 0.00 0.00 15 1014.4
20260902190056 73 285 3.0 9.0 0.00 0.00 0.00 15 1014.5
20260902184601 72 234 4.0 8.0 0.00 0.00 0.00 14 1014.6
20260902183102 72 177 3.0 8.0 0.00 0.00 0.00 15 1014.5
20260902181554 71 190 3.0 10.0 0.00 0.00 0.00 15 1014.6
20260902180048 69 220 4.0 11.0 0.00 0.00 0.00 14 1014.6
20260902174552 70 246 4.0 7.0 0.00 0.00 0.00 16 1014.6
20260902173107 69 169 3.0 10.0 0.00 0.00 0.00 16 1014.5
20260902171545 69 215 3.0 8.0 0.00 0.00 0.00 16 1014.3
20260902170039 67 186 4.0 8.0 0.00 0.00 0.00 17 1014.1
20260902164537 66 163 3.0 8.0 0.00 0.00 0.00 18 1014.1
20260902163033 66 245 3.0 8.0 0.00 0.00 0.00 18 1013.9
20260902161530 65 178 3.0 8.0 0.00 0.00 0.00 19 1013.8
20260902160041 64 212 3.0 6.0 0.00 0.00 0.00 19 1013.8
20260902154539 63 280 3.0 7.0 0.00 0.00 0.00 20 1013.6
20260902153034 62 186 3.0 9.0 0.00 0.00 0.00 21 1013.3
20260902151518 60 240 3.0 8.0 0.00 0.00 0.00 21 1013.3
20260902150015 59 238 3.0 8.0 0.00 0.00 0.00 22 1013.1
20260902144515 58 232 3.0 9.0 0.00 0.00 0.00 23 1013.0
20260902143009 58 237 3.0 9.0 0.00 0.00 0.00 23 1012.9
20260902141509 58 234 4.0 7.0 0.00 0.00 0.00 24 1012.9
20260902140012 57 235 4.0 7.0 0.00 0.00 0.00 23 1012.7
20260902134508 57 209 4.0 9.0 0.00 0.00 0.00 24 1012.3
20260902133006 56 234 3.0 9.0 0.00 0.00 0.00 26 1012.1
20260902131504 56 240 3.0 8.0 0.00 0.00 0.00 27 1012.1
20260902130003 56 224 4.0 7.0 0.00 0.00 0.00 32 1012.0
20260902124504 56 215 4.0 9.0 0.00 0.00 0.00 42 1012.0
20260902123008 56 233 4.0 9.0 0.00 0.00 0.00 44 1011.9
20260902121602 56 236 4.0 10.0 0.00 0.00 0.00 44 1011.9
20260902114558 56 240 4.0 8.0 0.00 0.00 0.00 44 1012.0
20260902113055 56 240 4.0 7.0 0.00 0.00 0.00 43 1012.1
20260902111555 56 234 4.0 8.0 0.00 0.00 0.00 43 1012.2
20260902110058 56 236 4.0 9.0 0.00 0.00 0.00 44 1012.2